This demonstration page uses our WeatherBlox Daily Observations layout. Learn more.

36.17497, -115.13722

Hourly Observations for April 1, 2018

Temp ( °F °C ) Dew Point ( °F °C ) Humidity (%) Winds ( mph kmh ) Pressure ( in mb ) Visibility ( mi km ) Precip ( " mm )
12:53 am 00:53 Clear 71 21.7 25 -3.9 18 18 NNE 5 7 29.83 1010 10 16.09344 0 0
1:53 am 01:53 Clear 71 21.7 22 -5.6 16 16 N 8 13 29.83 1010 10 16.09344 0 0
2:53 am 02:53 Clear 68 20 26 -3.3 21 21 WNW 3 6 29.83 1010 10 16.09344 0 0
3:53 am 03:53 Clear 66 18.9 27 -2.8 23 23 Calm 29.8 1009 10 16.09344 0 0
4:53 am 04:53 Clear 67 19.4 23 -5 19 19 N 8 13 29.83 1010 10 16.09344 0 0
5:53 am 05:53 Clear 66 18.9 22 -5.6 19 19 N 9 15 29.83 1010 10 16.09344 0 0
6:53 am 06:53 Sunny 65 18.3 22 -5.6 19 19 NW 9 15 29.83 1010 10 16.09344 0 0
7:53 am 07:53 Sunny 68 20 24 -4.4 19 19 NNW 8 13 29.85 1011 10 16.09344 0 0
8:53 am 08:53 Sunny 73 22.8 26 -3.3 17 17 Calm 29.85 1011 10 16.09344 0 0
9:53 am 09:53 Sunny 76 24.4 27 -2.8 16 16 N 5 7 29.85 1011 10 16.09344 0 0
10:53 am 10:53 Sunny 76 24.4 26 -3.3 16 16 ESE 7 11 29.85 1011 10 16.09344 0 0
11:53 am 11:53 Sunny 78 25.6 25 -3.9 14 14 Calm 29.83 1010 10 16.09344 0 0
12:53 pm 12:53 Sunny 80 26.7 23 -5 12 12 N 3 6 29.8 1009 10 16.09344 0 0
1:53 pm 13:53 Sunny 82 27.8 22 -5.6 11 11 S 7 11 29.77 1008 10 16.09344 0 0
2:53 pm 14:53 Sunny 82 27.8 22 -5.6 11 11 N 7 11 29.74 1007 10 16.09344 0 0
3:53 pm 15:53 Sunny 83 28.3 22 -5.6 10 10 SSE 12 19 29.74 1007 10 16.09344 0 0
4:53 pm 16:53 Sunny 84 28.9 17 -8.3 8 8 S 8 13 29.71 1006 10 16.09344 0 0
5:53 pm 17:53 Sunny 83 28.3 22 -5.6 10 10 S 10 17 29.68 1005 10 16.09344 0 0
6:53 pm 18:53 Sunny 82 27.8 20 -6.7 10 10 S 12 19 29.68 1005 10 16.09344 0 0
7:53 pm 19:53 Clear 79 26.1 27 -2.8 15 15 SW 7 11 29.68 1005 10 16.09344 0 0
8:53 pm 20:53 Clear 76 24.4 24 -4.4 14 14 SSW 8 13 29.71 1006 10 16.09344 0 0
9:53 pm 21:53 Clear 72 22.2 24 -4.4 17 17 S 8 13 29.71 1006 10 16.09344 0 0
10:53 pm 22:53 Clear 72 22.2 20 -6.7 14 14 SSW 12 19 29.71 1006 10 16.09344 0 0
11:53 pm 23:53 Clear 68 20 21 -6.1 17 17 NW 3 6 29.71 1006 10 16.09344 0 0

Powered by AerisWeather